Simultaneous Nadir Overpasses (SNOs) Predictions

Prediction of SNOs between AQUA and METOP-B Satellite Orbit:

Table of predicted SNOs for the next 14.0 days since TLE Epoch: 10/12/2018
Index Date (AQUA) Time (AQUA) Lat,Lon (AQUA) SZA (AQUA ) Date (METOP-B) Time (METOP-B) Lat,Lon (METOP-B) SZA (METOP-B ) Distance(km) Time Diff (sec)
1 10/12/2018 18:42:33 73.83,-106.40 81.35 10/12/2018 18:41:21 73.78,-106.89 81.31 16.46 72
2 10/12/2018 19:32:01 -73.96, 60.96 98.51 10/12/2018 19:31:59 -73.98, 60.92 98.49 2.64 2
3 10/12/2018 20:21:30 74.04,-131.58 81.58 10/12/2018 20:22:37 74.06,-131.57 81.60 2.17 67
4 10/15/2018 14:16:48 73.89, -40.09 82.45 10/15/2018 14:15:39 73.92, -40.16 82.48 3.20 69
5 10/15/2018 15:06:15 -73.96, 127.40 97.47 10/15/2018 15:06:20 -73.97, 127.29 97.46 3.34 5
6 10/15/2018 15:55:44 74.05, -65.16 82.64 10/15/2018 15:56:57 74.09, -65.07 82.68 5.82 73
7 10/18/2018 09:51:03 73.91, 26.31 83.50 10/18/2018 09:50:01 73.90, 26.21 83.49 3.22 62
8 10/18/2018 10:40:31 -74.02,-166.30 96.38 10/18/2018 10:40:41 -74.00,-166.22 96.40 3.14 10
9 10/18/2018 11:30:04 74.32, 0.65 83.95 10/18/2018 11:31:14 74.32, 1.92 83.93 38.34 70
10 10/21/2018 05:25:18 73.93, 92.70 84.53 10/21/2018 05:24:22 73.93, 92.70 84.54 0.08 56
11 10/21/2018 06:14:45 -73.98, -99.77 95.41 10/21/2018 06:15:03 -73.98, -99.85 95.41 2.57 18
12 10/21/2018 07:04:24 74.60, 66.41 85.25 10/21/2018 07:05:30 74.60, 69.05 85.22 77.96 66
13 10/24/2018 00:59:32 73.96, 159.08 85.55 10/24/2018 00:58:42 73.96, 159.18 85.56 3.20 50
14 10/24/2018 01:48:59 -74.00, -33.38 94.40 10/24/2018 01:49:23 -74.01, -33.38 94.39 0.89 24




NCC Satellite Simultaneous Nadir Overpasses (SNOs) Prediction Service
